TimeEDT,TemperatureF,Dew PointF,Humidity,Sea Level PressureIn,VisibilityMPH,Wind Direction,Wind SpeedMPH,Gust SpeedMPH,PrecipitationIn,Events,Conditions,WindDirDegrees,DateUTC
12:53 AM,82.9,73.0,72,30.09,10.0,SE,5.8,-,N/A,,Clear,140,2013-06-17 04:53:00
1:53 AM,82.9,75.0,77,30.06,10.0,SE,9.2,-,N/A,,Clear,140,2013-06-17 05:53:00
2:53 AM,82.9,75.0,77,30.06,10.0,SE,6.9,-,N/A,,Partly Cloudy,140,2013-06-17 06:53:00
3:53 AM,81.0,73.9,79,30.04,10.0,SE,3.5,-,N/A,,Clear,140,2013-06-17 07:53:00
4:53 AM,81.0,73.0,77,30.02,10.0,SE,4.6,-,N/A,,Clear,130,2013-06-17 08:53:00
5:53 AM,81.0,73.0,77,30.04,10.0,ESE,3.5,-,N/A,,Partly Cloudy,120,2013-06-17 09:53:00
6:53 AM,80.1,73.9,81,30.06,10.0,Calm,Calm,-,N/A,,Scattered Clouds,0,2013-06-17 10:53:00
7:53 AM,82.9,75.0,77,30.08,10.0,Calm,Calm,-,N/A,,Scattered Clouds,0,2013-06-17 11:53:00
8:53 AM,84.9,73.9,69,30.07,10.0,SE,5.8,-,N/A,,Scattered Clouds,130,2013-06-17 12:53:00
9:53 AM,87.1,73.0,63,30.07,10.0,ESE,10.4,-,N/A,,Scattered Clouds,110,2013-06-17 13:53:00
10:53 AM,88.0,73.0,61,30.07,10.0,ESE,8.1,-,N/A,,Scattered Clouds,120,2013-06-17 14:53:00
11:53 AM,88.0,73.0,61,30.08,10.0,ESE,9.2,-,N/A,,Unknown,120,2013-06-17 15:53:00
12:53 PM,88.0,73.0,61,30.09,10.0,East,10.4,-,N/A,,Scattered Clouds,100,2013-06-17 16:53:00
1:53 PM,89.1,73.0,59,30.07,10.0,East,12.7,-,N/A,,Scattered Clouds,100,2013-06-17 17:53:00
2:53 PM,90.0,73.0,57,30.06,10.0,ESE,12.7,16.1,N/A,,Scattered Clouds,120,2013-06-17 18:53:00
3:53 PM,89.1,73.0,59,30.06,10.0,ESE,13.8,-,N/A,,Scattered Clouds,120,2013-06-17 19:53:00
4:53 PM,87.1,73.9,65,30.04,10.0,SE,10.4,-,N/A,,Mostly Cloudy,130,2013-06-17 20:53:00
5:53 PM,87.1,75.0,67,30.04,10.0,ESE,12.7,-,N/A,,Scattered Clouds,110,2013-06-17 21:53:00
6:53 PM,86.0,73.0,65,30.04,10.0,ESE,13.8,-,N/A,,Scattered Clouds,120,2013-06-17 22:53:00
7:53 PM,84.0,73.9,72,30.04,10.0,SE,12.7,-,N/A,,Scattered Clouds,130,2013-06-17 23:53:00
8:53 PM,82.9,75.0,77,30.05,10.0,SE,9.2,-,N/A,,Clear,140,2013-06-18 00:53:00
9:53 PM,82.9,75.0,77,30.08,10.0,SE,8.1,-,N/A,,Clear,130,2013-06-18 01:53:00
10:53 PM,82.9,75.9,79,30.09,10.0,SE,6.9,-,N/A,,Partly Cloudy,140,2013-06-18 02:53:00
11:53 PM,82.9,75.9,79,30.09,10.0,SE,4.6,-,N/A,,Partly Cloudy,140,2013-06-18 03:53:00